This demonstration page uses our WeatherBlox Daily Observations layout. Learn more.

Hourly Observations for February 8, 2019

Temp ( °F °C ) Dew Point ( °F °C ) Humidity (%) Winds ( mph kmh ) Pressure ( in mb ) Visibility ( mi km ) Precip ( " mm )
12:15 am 00:15 Cloudy 46 8 46 8 100 100 SE 3 6 29.97 1015 0.5 0.804672 0 0
12:35 am 00:35 Cloudy 46 8 46 8 100 100 SE 5 7 29.97 1015 0.5 0.804672 0 0
12:55 am 00:55 Cloudy 46 8 46 8 100 100 Calm 29.97 1015 0.5 0.804672 0 0
1:15 am 01:15 Cloudy 46 8 46 8 100 100 Calm 29.94 1014 0.25 0.402336 0 0
1:35 am 01:35 Cloudy 46 8 46 8 100 100 NNE 6 9 29.97 1015 0.25 0.402336 0 0
1:55 am 01:55 Cloudy 46 8 46 8 100 100 NE 7 11 29.97 1015 0.5 0.804672 0 0
2:15 am 02:15 Cloudy 46 8 46 8 100 100 NE 5 7 29.97 1015 0.75 1.207008 0 0
2:35 am 02:35 Cloudy 46 8 46 8 100 100 NE 3 6 29.97 1015 1.25 2.01168 0.01 0.254
2:55 am 02:55 Cloudy 46 8 46 8 100 100 NE 7 11 29.97 1015 2 3.218688 0.01 0.254
3:15 am 03:15 Cloudy 45 7 45 7 100 100 E 7 11 29.97 1015 1.75 2.816352 0 0
3:35 am 03:35 Cloudy 45 7 45 7 100 100 Calm 29.97 1015 1.5 2.414016 0 0
3:55 am 03:55 Cloudy 45 7 45 7 100 100 ESE 3 6 29.97 1015 1.75 2.816352 0 0
4:55 am 04:55 Cloudy 43 6 43 6 100 100 Calm 29.97 1015 3 4.828032 0 0
5:15 am 05:15 Cloudy with Mist and Fog 45 7 45 7 100 100 Calm 29.97 1015 2.5 4.02336 0 0
5:35 am 05:35 Cloudy with Mist and Fog 45 7 45 7 100 100 SSW 3 6 29.97 1015 2 3.218688 0 0
5:55 am 05:55 Cloudy 45 7 45 7 100 100 Calm 29.97 1015 1.5 2.414016 0 0
6:15 am 06:15 Cloudy 45 7 45 7 100 100 Calm 29.97 1015 0.75 1.207008 0 0
6:35 am 06:35 Cloudy with Fog 45 7 45 7 100 100 S 5 7 29.97 1015 0.5 0.804672 0 0
6:55 am 06:55 Cloudy 45 7 45 7 100 100 Calm 29.97 1015 0.25 0.402336 0 0
7:15 am 07:15 Cloudy with Fog 45 7 45 7 100 100 S 3 6 29.97 1015 0.25 0.402336 0 0
7:35 am 07:35 Cloudy 45 7 45 7 100 100 Calm 29.97 1015 0 0 0 0
7:55 am 07:55 Cloudy 45 7 45 7 100 100 W 5 7 30 1016 0.25 0.402336 0 0
8:15 am 08:15 Cloudy 45 7 45 7 100 100 Calm 30 1016 0.25 0.402336 0 0
8:35 am 08:35 Cloudy 45 7 45 7 100 100 NNW 9 15 30 1016 0.5 0.804672 0 0
8:55 am 08:55 Cloudy 46 8 46 8 100 100 Calm 30.03 1017 3 4.828032 0 0
9:15 am 09:15 Cloudy with Mist and Fog 46 8 46 8 100 100 W 3 6 30.03 1017 4 6.437376 0 0
9:35 am 09:35 Mostly Cloudy 46 8 46 8 100 100 W 5 7 30.03 1017 10 16.09344 0 0
9:55 am 09:55 Partly Cloudy 48 9 48 9 100 100 W 5 7 30.03 1017 10 16.09344 0 0
10:15 am 10:15 Sunny 48 9 48 9 100 100 NW 15 24 30.03 1017 10 16.09344 0 0
10:35 am 10:35 Sunny 50 10 39 4 67 67 WNW 12 19 30.03 1017 10 16.09344 0 0
10:55 am 10:55 Sunny 52 11 34 1 50 50 NW 21 33 30.06 1018 10 16.09344 0 0
11:15 am 11:15 Sunny 54 12 36 2 51 51 NW 18 30 30.06 1018 10 16.09344 0 0
11:35 am 11:35 Sunny 54 12 36 2 51 51 NW 10 17 30.06 1018 10 16.09344 0 0
11:55 am 11:55 Sunny 54 12 32 0 44 44 W 26 43 30.09 1019 10 16.09344 0 0
12:15 pm 12:15 Sunny 54 12 32 0 44 44 WNW 24 39 30.09 1019 10 16.09344 0 0
12:35 pm 12:35 Sunny 52 11 36 2 54 54 NW 17 28 30.09 1019 10 16.09344 0 0
12:55 pm 12:55 Sunny 52 11 36 2 54 54 NNW 26 43 30.09 1019 10 16.09344 0 0
1:15 pm 13:15 Sunny 52 11 34 1 50 50 NW 22 35 30.12 1020 10 16.09344 0 0
1:35 pm 13:35 Sunny 52 11 32 0 47 47 NW 17 28 30.12 1020 10 16.09344 0 0
1:55 pm 13:55 Sunny 52 11 32 0 47 47 NW 23 37 30.12 1020 10 16.09344 0 0
2:15 pm 14:15 Sunny 52 11 32 0 47 47 WNW 23 37 30.12 1020 10 16.09344 0 0
2:35 pm 14:35 Sunny 52 11 28 -2 41 41 NW 21 33 30.12 1020 10 16.09344 0 0
2:55 pm 14:55 Sunny 52 11 27 -3 38 38 NW 22 35 30.15 1021 10 16.09344 0 0
3:15 pm 15:15 Sunny 50 10 27 -3 40 40 NW 18 30 30.18 1022 10 16.09344 0 0
3:35 pm 15:35 Sunny 48 9 27 -3 43 43 NW 20 31 30.18 1022 10 16.09344 0 0
3:55 pm 15:55 Sunny 46 8 27 -3 46 46 NW 16 26 30.21 1023 10 16.09344 0 0
4:15 pm 16:15 Sunny 46 8 27 -3 46 46 NW 18 30 30.21 1023 10 16.09344 0 0
4:35 pm 16:35 Sunny 46 8 27 -3 46 46 NW 16 26 30.21 1023 10 16.09344 0 0
4:55 pm 16:55 Sunny 45 7 27 -3 49 49 NNW 21 33 30.21 1023 10 16.09344 0 0
5:15 pm 17:15 Sunny 43 6 27 -3 53 53 NNW 20 31 30.24 1024 10 16.09344 0 0
5:35 pm 17:35 Sunny 43 6 25 -4 49 49 NNW 18 30 30.24 1024 10 16.09344 0 0
5:55 pm 17:55 Clear 41 5 23 -5 49 49 NW 15 24 30.27 1025 10 16.09344 0 0
6:15 pm 18:15 Clear 41 5 23 -5 49 49 WNW 14 22 30.3 1026 10 16.09344 0 0
6:35 pm 18:35 Clear 41 5 23 -5 49 49 NW 18 30 30.3 1026 10 16.09344 0 0
6:55 pm 18:55 Clear 39 4 23 -5 52 52 NW 18 30 30.33 1027 10 16.09344 0 0
7:15 pm 19:15 Clear 37 3 21 -6 52 52 NW 20 31 30.33 1027 10 16.09344 0 0
7:35 pm 19:35 Clear 37 3 21 -6 52 52 NW 21 33 30.36 1028 10 16.09344 0 0
7:55 pm 19:55 Clear 37 3 21 -6 52 52 WNW 18 30 30.36 1028 10 16.09344 0 0
8:15 pm 20:15 Clear 36 2 19 -7 52 52 NW 22 35 30.39 1029 10 16.09344 0 0
8:35 pm 20:35 Clear 36 2 19 -7 52 52 WNW 15 24 30.42 1030 10 16.09344 0 0
8:55 pm 20:55 Clear 36 2 19 -7 52 52 NW 17 28 30.42 1030 10 16.09344 0 0
9:15 pm 21:15 Clear 36 2 18 -8 48 48 WNW 9 15 30.42 1030 10 16.09344 0 0
9:35 pm 21:35 Clear 34 1 18 -8 51 51 WNW 13 20 30.42 1030 10 16.09344 0 0
9:55 pm 21:55 Clear 34 1 18 -8 51 51 WNW 12 19 30.45 1031 10 16.09344 0 0
10:15 pm 22:15 Clear 34 1 18 -8 51 51 NNW 12 19 30.45 1031 10 16.09344 0 0
10:35 pm 22:35 Clear 34 1 18 -8 51 51 NW 15 24 30.48 1032 10 16.09344 0 0
10:55 pm 22:55 Clear 34 1 18 -8 51 51 NW 15 24 30.48 1032 10 16.09344 0 0
11:15 pm 23:15 Clear 34 1 18 -8 51 51 NNW 20 31 30.48 1032 10 16.09344 0 0
11:35 pm 23:35 Clear 34 1 18 -8 51 51 NNW 14 22 30.48 1032 10 16.09344 0 0
11:55 pm 23:55 Clear 32 0 18 -8 55 55 NNW 18 30 30.48 1032 10 16.09344 0 0

Powered by AerisWeather